• In Uzbekistan
  • List of Countries
  • For 7 days
  • Water Temperature
  • Satellite Maps
  • Weather Map
  • Weather Widgets
  • user-avatar
    Login

    Hourly Weather Talas

    Today, 19 November, Monday

    Time Temperature Precipitation Wind Pressure Humidity
    00:00 -7°C° 0 mm 2 mps 599 mmHg 34%
    01:00 -7°C° 0 mm 2 mps 599 mmHg 34%
    02:00 -7°C° 0 mm 2 mps 599 mmHg 33%
    03:00 -7°C° 0 mm 2 mps 599 mmHg 33%
    04:00 -7°C° 0 mm 2 mps 599 mmHg 32%
    05:00 -7°C° 0 mm 2 mps 599 mmHg 32%
    06:00 -6°C° 0 mm 2 mps 599 mmHg 31%
    07:00 -6°C° 0 mm 2 mps 599 mmHg 31%
    08:00 -6°C° 0 mm 2 mps 599 mmHg 31%
    09:00 -4°C° 0 mm 2 mps 600 mmHg 35%
    10:00 -2°C° 0 mm 2 mps 600 mmHg 38%
    11:00 +1°C° 0 mm 2 mps 601 mmHg 42%
    12:00 +1°C° 0 mm 2 mps 601 mmHg 43%
    13:00 +3°C° 0 mm 1 mps 600 mmHg 44%
    14:00 +3°C° 0 mm 1 mps 600 mmHg 45%
    15:00 +1°C° 0 mm 1 mps 599 mmHg 44%
    16:00 0°C° 0 mm 1 mps 599 mmHg 43%
    17:00 -2°C° 0 mm 1 mps 598 mmHg 42%
    18:00 -2°C° 0 mm 1 mps 598 mmHg 41%
    19:00 -4°C° 0 mm 2 mps 598 mmHg 39%
    20:00 -3°C° 0 mm 2 mps 598 mmHg 38%
    21:00 -3°C° 0 mm 2 mps 598 mmHg 39%
    22:00 -3°C° 0 mm 2 mps 598 mmHg 40%
    23:00 -3°C° 0 mm 2 mps 597 mmHg 41%

    Tomorrow, 20 November, Tuesday

    Time Temperature Precipitation Wind Pressure Humidity
    00:00 -3°C° 0 mm 2 mps 597 mmHg 44%
    01:00 -3°C° 0 mm 2 mps 597 mmHg 46%
    02:00 -3°C° 0 mm 2 mps 597 mmHg 49%
    03:00 -3°C° 0 mm 2 mps 597 mmHg 53%
    04:00 -3°C° 0 mm 2 mps 597 mmHg 57%
    05:00 -3°C° 0 mm 2 mps 597 mmHg 62%
    06:00 -3°C° 0.1 mm 2 mps 597 mmHg 64%
    07:00 -3°C° 0.1 mm 2 mps 598 mmHg 66%
    08:00 -3°C° 0.1 mm 2 mps 598 mmHg 68%
    09:00 -3°C° 0.2 mm 2 mps 599 mmHg 69%
    10:00 -2°C° 0.2 mm 2 mps 599 mmHg 70%
    11:00 -2°C° 0.2 mm 2 mps 600 mmHg 71%
    12:00 -2°C° 0.2 mm 2 mps 600 mmHg 71%
    13:00 -1°C° 0.2 mm 2 mps 600 mmHg 72%
    14:00 -1°C° 0.2 mm 2 mps 600 mmHg 72%
    15:00 -2°C° 0.1 mm 2 mps 600 mmHg 74%
    16:00 -3°C° 0.1 mm 2 mps 600 mmHg 76%
    17:00 -4°C° 0.1 mm 2 mps 600 mmHg 78%
    18:00 -4°C° 0.1 mm 2 mps 600 mmHg 78%
    19:00 -5°C° 0.1 mm 2 mps 600 mmHg 77%
    20:00 -5°C° 0.1 mm 2 mps 600 mmHg 76%
    21:00 -5°C° 0 mm 2 mps 600 mmHg 76%
    22:00 -5°C° 0 mm 2 mps 600 mmHg 75%
    23:00 -6°C° 0 mm 2 mps 600 mmHg 74%

    Day after tomorrow, 21 November, Wednesday

    Time Temperature Precipitation Wind Pressure Humidity
    00:00 -6°C° 0 mm 2 mps 600 mmHg 72%
    01:00 -6°C° 0 mm 2 mps 600 mmHg 71%
    02:00 -6°C° 0 mm 2 mps 600 mmHg 69%
    03:00 -7°C° 0 mm 2 mps 600 mmHg 68%
    04:00 -7°C° 0 mm 2 mps 599 mmHg 68%
    05:00 -8°C° 0 mm 2 mps 599 mmHg 67%
    06:00 -7°C° 0 mm 2 mps 599 mmHg 64%
    07:00 -7°C° 0 mm 2 mps 599 mmHg 61%
    08:00 -6°C° 0 mm 2 mps 599 mmHg 58%
    09:00 -5°C° 0 mm 3 mps 599 mmHg 55%
    10:00 -2°C° 0 mm 3 mps 599 mmHg 53%
    11:00 0°C° 0 mm 3 mps 599 mmHg 50%
    12:00 0°C° 0 mm 3 mps 599 mmHg 50%
    13:00 0°C° 0 mm 3 mps 598 mmHg 51%
    14:00 +1°C° 0 mm 3 mps 597 mmHg 52%
    15:00 -1°C° 0 mm 3 mps 596 mmHg 52%
    16:00 -3°C° 0 mm 2 mps 595 mmHg 52%
    17:00 -4°C° 0 mm 2 mps 594 mmHg 52%
    18:00 -4°C° 0 mm 2 mps 594 mmHg 48%
    19:00 -4°C° 0 mm 2 mps 594 mmHg 44%
    20:00 -4°C° 0 mm 2 mps 593 mmHg 40%
    21:00 -4°C° 0 mm 2 mps 593 mmHg 39%
    22:00 -4°C° 0 mm 2 mps 593 mmHg 38%
    23:00 -4°C° 0 mm 2 mps 592 mmHg 36%

    22 November, Thursday

    Time Temperature Precipitation Wind Pressure Humidity
    00:00 -3°C° 0 mm 2 mps 592 mmHg 36%
    01:00 -3°C° 0 mm 2 mps 592 mmHg 37%
    02:00 -3°C° 0 mm 2 mps 592 mmHg 37%
    03:00 -3°C° 0 mm 2 mps 592 mmHg 39%
    04:00 -1°C° 0 mm 1 mps 592 mmHg 41%
    05:00 -1°C° 0 mm 1 mps 592 mmHg 44%
    06:00 -3°C° 0 mm 2 mps 592 mmHg 47%
    07:00 -3°C° 0 mm 2 mps 593 mmHg 49%
    08:00 -2°C° 0 mm 2 mps 594 mmHg 52%
    09:00 -2°C° 0.1 mm 3 mps 594 mmHg 56%
    10:00 -1°C° 0.1 mm 3 mps 595 mmHg 61%
    11:00 -1°C° 0.1 mm 3 mps 596 mmHg 65%
    12:00 0°C° 0.1 mm 3 mps 596 mmHg 65%
    13:00 -1°C° 0.1 mm 4 mps 596 mmHg 64%
    14:00 0°C° 0.1 mm 4 mps 597 mmHg 64%
    15:00 -1°C° 0 mm 4 mps 596 mmHg 65%
    16:00 -2°C° 0 mm 4 mps 596 mmHg 66%
    17:00 -3°C° 0 mm 4 mps 596 mmHg 67%
    18:00 -3°C° 0 mm 4 mps 596 mmHg 67%
    19:00 -3°C° 0 mm 4 mps 596 mmHg 67%
    20:00 -4°C° 0 mm 4 mps 596 mmHg 66%
    21:00 -4°C° 0 mm 3 mps 596 mmHg 66%
    22:00 -4°C° 0 mm 3 mps 596 mmHg 66%
    23:00 -4°C° 0 mm 3 mps 596 mmHg 66%

    23 November, Friday

    Time Temperature Precipitation Wind Pressure Humidity
    00:00 -4°C° 0 mm 3 mps 596 mmHg 67%
    01:00 -4°C° 0 mm 3 mps 596 mmHg 67%
    02:00 -4°C° 0 mm 3 mps 596 mmHg 67%
    03:00 -4°C° 0 mm 3 mps 596 mmHg 68%
    04:00 -4°C° 0 mm 3 mps 596 mmHg 68%
    05:00 -4°C° 0 mm 3 mps 596 mmHg 69%
    06:00 -4°C° 0 mm 3 mps 596 mmHg 68%
    07:00 -4°C° 0 mm 3 mps 596 mmHg 68%
    08:00 -4°C° 0 mm 3 mps 596 mmHg 67%
    09:00 -1°C° 0.1 mm 3 mps 597 mmHg 66%
    10:00 -1°C° 0.1 mm 4 mps 597 mmHg 64%
    11:00 0°C° 0.1 mm 4 mps 598 mmHg 63%
    12:00 +1°C° 0.1 mm 4 mps 598 mmHg 63%
    13:00 +1°C° 0.1 mm 4 mps 597 mmHg 64%
    14:00 +1°C° 0.1 mm 4 mps 597 mmHg 64%
    15:00 0°C° 0.1 mm 4 mps 597 mmHg 65%
    16:00 +1°C° 0.1 mm 3 mps 597 mmHg 67%
    17:00 0°C° 0.1 mm 3 mps 596 mmHg 68%
    18:00 0°C° 0.1 mm 3 mps 596 mmHg 68%
    19:00 -1°C° 0.1 mm 4 mps 596 mmHg 68%
    20:00 -1°C° 0.1 mm 4 mps 596 mmHg 68%
    21:00 -1°C° 0.2 mm 4 mps 596 mmHg 69%
    22:00 -1°C° 0.2 mm 4 mps 595 mmHg 69%
    23:00 -1°C° 0.2 mm 4 mps 595 mmHg 69%

    24 November, Saturday

    Time Temperature Precipitation Wind Pressure Humidity
    00:00 -1°C° 0.1 mm 4 mps 595 mmHg 69%
    01:00 -1°C° 0.1 mm 4 mps 594 mmHg 69%
    02:00 -1°C° 0.1 mm 4 mps 594 mmHg 69%
    03:00 -1°C° 0.1 mm 4 mps 594 mmHg 70%
    04:00 -1°C° 0.1 mm 4 mps 594 mmHg 71%
    05:00 -1°C° 0.1 mm 4 mps 593 mmHg 72%
    06:00 -1°C° 0.5 mm 4 mps 594 mmHg 75%
    07:00 -1°C° 0.5 mm 4 mps 595 mmHg 77%
    08:00 -1°C° 0.5 mm 4 mps 595 mmHg 79%
    09:00 -1°C° 0.6 mm 4 mps 596 mmHg 80%
    10:00 -1°C° 0.6 mm 4 mps 597 mmHg 80%
    11:00 -2°C° 0.6 mm 5 mps 598 mmHg 81%
    12:00 -2°C° 0.4 mm 4 mps 599 mmHg 81%
    13:00 -3°C° 0.4 mm 4 mps 600 mmHg 82%
    14:00 -4°C° 0.4 mm 4 mps 600 mmHg 83%
    15:00 -4°C° 0.1 mm 4 mps 601 mmHg 81%
    16:00 -5°C° 0.1 mm 3 mps 602 mmHg 80%
    17:00 -5°C° 0.1 mm 2 mps 602 mmHg 79%
    18:00 -5°C° 0 mm 2 mps 603 mmHg 77%
    19:00 -5°C° 0 mm 2 mps 603 mmHg 75%
    20:00 -6°C° 0 mm 2 mps 603 mmHg 73%
    21:00 -6°C° 0 mm 2 mps 603 mmHg 72%
    22:00 -6°C° 0 mm 2 mps 603 mmHg 70%
    23:00 -6°C° 0 mm 2 mps 603 mmHg 69%
    Show more